EA3CIU-1 Weather Reports


Display with metric or nautical units.
time (UTC)temp
F
wind
direction
speed
MPH
gust
MPH
rain 1hr
in
rain 24hr
in
rain mn
in
humidity
%
barometer
mb
20260504160207 64 136 0.0 4.0 0.00 0.00 0.00 74
20260504150706 63 141 4.0 4.0 0.00 0.00 0.00 74
20260504150206 64 137 3.0 4.0 0.00 0.00 0.00 72
20260504141206 64 169 0.0 7.0 0.00 0.00 0.00 71 1011.0
20260504140706 64 125 3.0 6.0 0.00 0.00 0.00 71 1011.0
20260504140205 64 112 4.0 6.0 0.00 0.00 0.00 69 1011.0
20260504130705 65 144 5.0 8.0 0.00 0.00 0.00 72 1010.0
20260504130206 65 137 4.0 6.0 0.00 0.00 0.00 73
20260504120206 65 118 7.0 9.0 0.00 0.00 0.00 84
20260504110406 70 124 3.0 5.0 0.00 0.00 0.00 55
20260504100405 71 95 3.0 6.0 0.00 0.00 0.00 52
20260504081905 67 332 0.0 3.0 0.00 0.00 0.00 64 1011.0
20260504081405 66 113 0.0 4.0 0.00 0.00 0.00 66
20260504080905 66 131 0.0 5.0 0.00 0.00 0.00 66 1011.0
20260504070404 64 335 0.0 0.0 0.00 0.00 0.00 72 1012.0
20260504050405 59 336 0.0 4.0 0.00 0.00 0.00 89 1012.0
20260504045905 59 336 0.0 4.0 0.00 0.00 0.00 89 1012.0
20260504045405 59 343 0.0 4.0 0.00 0.00 0.00 88 1012.0
20260504044405 59 357 0.0 0.0 0.00 0.00 0.00 89 1012.0
20260504043904 59 319 0.0 0.0 0.00 0.00 0.00 89 1012.0
20260504043405 59 319 0.0 0.0 0.00 0.00 0.00 89 1012.0
20260504042904 59 319 0.0 0.0 0.00 0.00 0.00 90 1012.0
20260504042406 59 319 0.0 0.0 0.00 0.00 0.00 89 1012.0
20260504041903 59 319 0.0 0.0 0.00 0.00 0.00 89 1012.0
20260504041405 59 319 0.0 0.0 0.00 0.00 0.00 89 1012.0
20260504040905 59 319 0.0 0.0 0.00 0.00 0.00 89 1012.0
20260504040405 59 319 0.0 0.0 0.00 0.00 0.00 88 1012.0
20260504035904 59 319 0.0 0.0 0.00 0.00 0.00 88 1012.0
20260504035405 59 319 0.0 0.0 0.00 0.00 0.00 88 1012.0
20260504034404 59 319 0.0 0.0 0.00 0.00 0.00 87 1012.0
20260504033903 59 319 0.0 0.0 0.00 0.00 0.00 87 1012.0
20260504033405 59 319 0.0 0.0 0.00 0.00 0.00 86 1012.0
20260504032905 59 319 0.0 0.0 0.00 0.00 0.00 85 1012.0
20260504032404 59 319 0.0 0.0 0.00 0.00 0.00 84 1012.0
20260504031904 59 319 0.0 0.0 0.00 0.00 0.00 84 1012.0
20260504030905 59 319 0.0 0.0 0.00 0.00 0.00 84 1012.0
20260504030405 59 319 0.0 0.0 0.00 0.00 0.00 84 1012.0
20260504025904 59 319 0.0 0.0 0.00 0.00 0.00 84 1012.0
20260504025405 59 319 0.0 3.0 0.00 0.00 0.00 84 1012.0
20260504024404 59 319 0.0 3.0 0.00 0.00 0.00 84 1012.0
20260504023903 59 319 0.0 3.0 0.00 0.00 0.00 85 1012.0
20260504023404 59 319 0.0 3.0 0.00 0.00 0.00 85 1012.0
20260504022904 59 319 0.0 3.0 0.00 0.00 0.00 85 1012.0
20260504022404 59 328 0.0 3.0 0.00 0.00 0.00 85 1012.0
20260504021904 59 315 0.0 3.0 0.00 0.00 0.00 86 1012.0
20260504021404 59 307 0.0 0.0 0.00 0.00 0.00 87 1012.0
20260504020904 59 307 0.0 0.0 0.00 0.00 0.00 87 1012.0
20260504020407 59 307 0.0 0.0 0.00 0.00 0.00 87 1012.0
20260504015904 59 307 0.0 0.0 0.00 0.00 0.00 88 1012.0
20260504015404 59 307 0.0 0.0 0.00 0.00 0.00 88 1012.0
20260504014904 59 307 0.0 0.0 0.00 0.00 0.00 88 1012.0
20260504014405 59 307 0.0 0.0 0.00 0.00 0.00 88 1012.0
20260504013904 59 307 0.0 0.0 0.00 0.00 0.00 89 1012.0
20260504012404 59 307 0.0 0.0 0.00 0.00 0.00 90 1012.0
20260504011904 59 307 0.0 0.0 0.00 0.00 0.00 90 1012.0
20260504011404 59 307 0.0 0.0 0.00 0.00 0.00 91 1012.0
20260504010904 59 307 0.0 0.0 0.00 0.00 0.00 91 1013.0
20260504010404 59 307 0.0 0.0 0.00 0.00 0.00 91 1013.0
20260504005904 59 307 0.0 0.0 0.00 0.00 0.00 91 1013.0
20260504005405 59 307 0.0 0.0 0.00 0.00 0.00 91 1013.0
20260504004905 58 307 0.0 2.0 0.00 0.00 0.00 91 1013.0
20260504003404 58 307 0.0 3.0 0.00 0.00 0.00 91 1013.0
20260504002903 58 307 0.0 3.0 0.00 0.00 0.00 92 1013.0
20260504002403 58 307 0.0 3.0 0.00 0.00 0.00 92 1013.0
20260504001404 58 302 0.0 0.0 0.00 0.00 0.00 92 1013.0
20260504000905 58 302 0.0 0.0 0.00 0.00 0.00 92 1013.0
20260504000406 58 302 0.0 0.0 0.00 0.00 0.00 92 1013.0
20260503235903 58 302 0.0 0.0 0.00 0.00 0.00 92 1013.0
20260503235405 58 302 0.0 0.0 0.00 0.00 0.00 92 1013.0
20260503234904 58 302 0.0 3.0 0.00 0.00 0.00 92 1013.0
20260503233904 58 302 0.0 4.0 0.00 0.00 0.00 92 1013.0
20260503232905 58 305 0.0 4.0 0.00 0.00 0.00 93 1013.0
20260503231903 58 277 0.0 0.0 0.00 0.00 0.00 94 1013.0
20260503231404 58 277 0.0 0.0 0.00 0.00 0.00 94 1013.0
20260503230904 58 277 0.0 0.0 0.00 0.00 0.00 94 1013.0
20260503230405 58 277 0.0 0.0 0.00 0.00 0.00 94 1013.0
20260503225905 58 277 0.0 0.0 0.00 0.00 0.00 94 1013.0
20260503225404 58 277 0.0 3.0 0.00 0.00 0.00 94 1013.0
20260503224405 58 277 0.0 3.0 0.00 0.00 0.00 94 1013.0
20260503223904 58 298 0.0 0.0 0.00 0.00 0.00 94 1013.0
20260503223404 58 191 0.0 0.0 0.00 0.00 0.00 94 1013.0
20260503222904 58 191 0.0 0.0 0.00 0.00 0.00 94 1013.0
20260503222404 58 191 0.0 0.0 0.00 0.00 0.00 94 1013.0
20260503221904 58 125 0.0 3.0 0.00 0.00 0.00 94 1013.0
20260503221404 58 155 0.0 3.0 0.00 0.00 0.00 94 1013.0
20260503220405 58 173 0.0 3.0 0.00 0.00 0.00 94 1013.0
20260503215904 58 294 2.0 3.0 0.00 0.00 0.00 94 1013.0
20260503215404 58 205 0.0 3.0 0.00 0.00 0.00 94 1013.0
20260503214904 58 295 0.0 4.0 0.00 0.00 0.00 94 1013.0
20260503214404 58 262 0.0 4.0 0.00 0.00 0.00 94 1013.0
20260503213903 58 185 0.0 4.0 0.00 0.00 0.00 94 1013.0
20260503213404 58 193 2.0 4.0 0.00 0.00 0.00 94 1013.0
20260503212404 58 177 0.0 3.0 0.00 0.00 0.00 93 1014.0
20260503211904 58 141 0.0 3.0 0.00 0.00 0.00 92 1014.0
20260503211405 58 151 0.0 0.0 0.00 0.00 0.00 92 1014.0
20260503210904 59 173 0.0 3.0 0.00 0.00 0.00 92 1014.0
20260503210405 59 168 0.0 3.0 0.00 0.00 0.00 91 1014.0
20260503205904 59 189 0.0 4.0 0.00 0.00 0.00 91 1014.0
20260503205405 59 139 3.0 4.0 0.00 0.00 0.00 90 1014.0
20260503204904 59 135 0.0 4.0 0.00 0.00 0.00 90 1014.0
20260503204405 59 165 0.0 3.0 0.00 0.00 0.00 89 1014.0
20260503203903 60 165 0.0 3.0 0.00 0.00 0.00 88 1014.0
20260503202903 60 144 0.0 3.0 0.00 0.00 0.00 88 1014.0
20260503201904 60 246 0.0 0.0 0.00 0.00 0.00 88 1014.0
20260503201403 60 281 0.0 0.0 0.00 0.00 0.00 88 1014.0
20260503200905 60 242 0.0 0.0 0.00 0.00 0.00 89 1014.0
20260503200405 60 287 0.0 0.0 0.00 0.00 0.00 89 1014.0
20260503195903 60 162 0.0 0.0 0.00 0.00 0.00 89 1014.0
20260503195406 59 131 0.0 0.0 0.00 0.00 0.00 89 1013.0
20260503194903 59 259 0.0 3.0 0.00 0.00 0.00 89 1013.0
20260503194404 59 167 0.0 3.0 0.00 0.00 0.00 89 1013.0
20260503193905 59 167 0.0 3.0 0.00 0.00 0.00 89 1013.0
20260503193405 59 180 0.0 3.0 0.00 0.00 0.00 89 1013.0
20260503192904 59 154 0.0 3.0 0.00 0.00 0.00 89 1013.0
20260503191903 59 172 0.0 3.0 0.00 0.00 0.00 88 1013.0
20260503191404 59 184 0.0 3.0 0.00 0.00 0.00 88 1013.0
20260503190904 60 158 0.0 4.0 0.00 0.00 0.00 88 1013.0
20260503190404 60 170 0.0 4.0 0.00 0.00 0.00 88 1013.0
20260503185904 60 184 0.0 4.0 0.00 0.00 0.00 87 1013.0
20260503185405 60 137 2.0 4.0 0.00 0.00 0.00 86 1013.0
20260503184905 60 147 0.0 4.0 0.00 0.00 0.00 86 1013.0
20260503184404 60 170 3.0 4.0 0.00 0.00 0.00 85 1013.0
20260503183904 60 172 0.0 4.0 0.00 0.00 0.00 84 1013.0
20260503183405 60 171 0.0 3.0 0.00 0.00 0.00 83 1013.0
20260503182903 60 171 0.0 4.0 0.00 0.00 0.00 83 1013.0
20260503182405 60 135 0.0 5.0 0.00 0.00 0.00 82 1013.0
20260503181904 60 175 0.0 5.0 0.00 0.00 0.00 81 1013.0
20260503181404 60 152 3.0 5.0 0.00 0.00 0.00 79 1013.0
20260503180904 60 198 3.0 4.0 0.00 0.00 0.00 78 1013.0
20260503180406 60 164 3.0 5.0 0.00 0.00 0.00 77 1013.0
20260503175904 60 125 0.0 5.0 0.00 0.00 0.00 76 1013.0
20260503175405 60 188 0.0 5.0 0.00 0.00 0.00 76 1013.0
20260503174904 60 142 2.0 5.0 0.00 0.00 0.00 75 1013.0
20260503173903 61 223 0.0 4.0 0.00 0.00 0.00 73 1013.0
20260503173405 61 215 0.0 5.0 0.00 0.00 0.00 72 1013.0
20260503172903 61 162 2.0 5.0 0.00 0.00 0.00 71 1013.0
20260503172405 61 187 0.0 5.0 0.00 0.00 0.00 71 1013.0
20260503171903 61 191 3.0 4.0 0.00 0.00 0.00 69 1013.0
20260503171405 61 182 0.0 6.0 0.00 0.00 0.00 68 1013.0
20260503170904 61 173 0.0 6.0 0.00 0.00 0.00 68 1013.0
20260503170405 60 183 0.0 6.0 0.00 0.00 0.00 68 1013.0